カタログに戻る

STARLINK-5575

運用中通信VLEO
NORAD 55381·PAYLOAD·🇺🇸 United States

打ち上げ Jan 26, 2023 から Cape Canaveral Space Force Station

Loading…

次のパス (今後24時間)

TLE

最新Source: CelesTrak SupGP

元期: Sep 14, 2026, 21:08 UTC

1 55381C 23013BC  26257.88104167 -.00033499  00000+0 -12132-2 0  2575
2 55381  43.0027 329.9137 0001947 274.6412 117.0039 15.27596844    14

AllMySatでSTARLINK-5575をリアルタイム追跡

Download on the App Store